Torna al catalogo

FENGYUN 1C DEB

AttivoPO
NORAD 36645·DEBRIS·🇨🇳 China

Lanciato May 10, 1999 da Taiyuan Satellite Launch Center

Loading…

Prossimi Passaggi (prossime 24 ore)

TLE

AggiornatoSource: Space-Track

Epoca: Sep 13, 2026, 06:30 UTC

1 36645U 99025DXP 26256.27111426  .00000828  00000-0  88027-3 0  9990
2 36645  98.5140  11.7368 0291780  43.5244 318.8530 13.59516171612767

Traccia FENGYUN 1C DEB in tempo reale con AllMySat

Download on the App Store